Voltar ao catálogo

STARLINK-37585

AtivoComunicaçõesSSO
NORAD 69421·PAYLOAD·🇺🇸 United States

Lançado Jun 7, 2026 de Vandenberg Space Force Base

Loading…

Próximas Passagens (próximas 24 horas)

TLE

AtualizadoSource: CelesTrak SupGP

Época: Sep 14, 2026, 21:15 UTC

1 69421C 26126B   26257.88590278  .00022216  00000+0  68964-3 0  2573
2 69421  97.2849 119.1538 0001921  90.4797 176.2382 15.33427367    11

Acompanhe STARLINK-37585 em tempo real com AllMySat

Download on the App Store